Lady Elliot Island Observation History
Time Wind Speed Temp Pressure Rel. Hum Rain
03/05:30am SSW 19-26 kts 15.4°c 1020.9 hPa 59% 0.2mm
03/05:20am SSW 18-28 kts 15.3°c 1020.9 hPa 60% 0.2mm
03/05:00am SSW 19-25 kts 15.7°c 1020.8 hPa 60% 0.2mm
03/04:30am SSW 18-25 kts 15.7°c 1020.8 hPa 59% 0.2mm
03/04:00am SSW 19-26 kts 15.8°c 1020.8 hPa 56% 0.2mm
03/03:30am SSW 19-26 kts 16.1°c 1020.8 hPa 57% 0.2mm
03/03:00am SSW 18-25 kts 16.0°c 1020.9 hPa 52% 0.2mm
03/02:30am SSW 18-26 kts 16.1°c 1021.1 hPa 51% 0.2mm
03/02:00am SSW 18-27 kts 16.5°c 1021.1 hPa 52% 0.2mm
03/01:30am SSW 18-24 kts 16.6°c 1021.4 hPa 53% 0.2mm
03/01:00am SSW 18-24 kts 16.9°c 1021.6 hPa 51% 0.2mm
03/12:30am SSW 18-27 kts 17.3°c 1021.4 hPa 50% 0.2mm
03/12:15am SSW 17-27 kts 17.5°c 1021.3 hPa 50% 0.2mm
03/12:00am SSW 18-27 kts 17.8°c 1021.3 hPa 51% 0.2mm
Time Wind Speed Temp Pressure Rel. Hum Rain
02/11:58pm SSW 17-27 kts 17.7°c 1021.4 hPa 51% 0.2mm
02/11:30pm SSW 18-26 kts 18.2°c 1021.6 hPa 48% 0.2mm
02/11:00pm SSW 17-25 kts 18.7°c 1021.6 hPa 49% 0.2mm
02/10:30pm SSW 15-19 kts 19.4°c 1021.5 hPa 44% 0.2mm
02/10:00pm SSW 13-19 kts 19.5°c 1021.6 hPa 41% 0.2mm
02/09:30pm SSW 12-17 kts 20.0°c 1021.7 hPa 37% 0.2mm
02/09:00pm SSW 11-16 kts 19.9°c 1021.6 hPa 38% 0.2mm
02/08:30pm SSW 12-17 kts 20.5°c 1021.2 hPa 41% 0.2mm
02/08:00pm SSW 12-16 kts 20.1°c 1021.1 hPa 43% 0.2mm
02/07:30pm SSW 8-13 kts 20.1°c 1020.8 hPa 43% 0.2mm
02/07:00pm SW 8-11 kts 19.9°c 1020.3 hPa 41% 0.2mm
02/06:30pm SW 8-11 kts 20.2°c 1019.8 hPa 40% 0.2mm
02/06:00pm SW 7-11 kts 19.8°c 1019.4 hPa 43% 0.2mm
02/05:30pm SW 8-11 kts 19.8°c 1019.2 hPa 42% 0.2mm
02/05:00pm SSW 8-12 kts 19.9°c 1018.8 hPa 44% 0.2mm
02/04:30pm SSW 7-11 kts 20.7°c 1018.5 hPa 46% 0.2mm
02/04:00pm SSW 8-12 kts 21.3°c 1018.1 hPa 49% 0.2mm
02/03:30pm SSW 7-10 kts 21.7°c 1018.3 hPa 48% 0.2mm
02/03:00pm SSW 9-12 kts 21.7°c 1018.3 hPa 49% 0.2mm
02/02:30pm SW 9-12 kts 21.9°c 1018.3 hPa 46% 0.2mm
02/02:00pm SSW 9-13 kts 21.8°c 1018.5 hPa 50% 0.2mm
02/01:30pm SW 9-13 kts 21.6°c 1018.7 hPa 51% 0.2mm
02/01:00pm SSW 9-14 kts 21.4°c 1018.9 hPa 52% 0.2mm
02/12:30pm SSW 13-17 kts 20.8°c 1019.0 hPa 52% 0.2mm
02/12:00pm SSW 12-18 kts 21.0°c 1019.3 hPa 55% 0.2mm
02/11:30am SSW 15-22 kts 20.4°c 1019.3 hPa 54% 0.0mm
02/11:00am SSW 15-20 kts 19.9°c 1019.5 hPa 56% 0.0mm
02/10:30am SSW 15-21 kts 20.1°c 1019.7 hPa 57% 0.0mm
02/10:00am SSW 15-23 kts 20.3°c 1019.7 hPa 59% 0.0mm
02/09:30am SSW 14-19 kts 20.5°c 1019.6 hPa 54% 0.0mm
02/09:00am SSW 17-24 kts 20.3°c 1019.5 hPa 57% 7.4mm
02/08:30am SSW 18-23 kts 20.0°c 1019.6 hPa 57% 7.4mm
02/08:00am SSW 14-20 kts 20.0°c 1019.4 hPa 60% 7.4mm
02/07:30am SSW 16-22 kts 19.6°c 1019.2 hPa 65% 7.4mm
02/07:00am SSW 15-21 kts 19.3°c 1018.5 hPa 72% 7.4mm
02/06:30am SW 15-21 kts 20.0°c 1018.1 hPa 77% 7.4mm
02/06:00am WSW 15-23 kts 20.4°c 1017.7 hPa 88% 6.4mm
02/05:30am WNW 12-16 kts 22.2°c 1017.0 hPa 81% 6.0mm
02/05:00am NW 9-13 kts 22.0°c 1016.4 hPa 80% 6.0mm
02/04:30am NW 11-15 kts 22.0°c 1016.3 hPa 79% 6.0mm
02/04:00am NW 9-13 kts 22.0°c 1016.1 hPa 76% 6.0mm
02/03:30am NW 10-14 kts 21.9°c 1016.1 hPa 77% 6.0mm
02/03:00am NW 11-14 kts 22.2°c 1016.3 hPa 75% 6.0mm
02/02:30am NW 9-13 kts 22.3°c 1016.3 hPa 79% 6.0mm
02/02:00am NW 9-13 kts 22.2°c 1016.4 hPa 79% 6.0mm
02/01:30am NW 9-13 kts 22.1°c 1016.7 hPa 77% 6.0mm
02/01:00am NNW 9-13 kts 22.1°c 1016.8 hPa 78% 6.0mm
02/12:30am NNW 8-12 kts 22.1°c 1017.0 hPa 77% 6.0mm
02/12:00am NNW 9-15 kts 22.0°c 1017.0 hPa 79% 6.0mm
Time Wind Speed Temp Pressure Rel. Hum Rain
01/11:30pm NNW 9-13 kts 21.9°c 1017.1 hPa 78% 6.0mm
01/11:00pm NNW 11-15 kts 21.9°c 1017.1 hPa 81% 6.0mm
01/10:30pm N 11-15 kts 21.9°c 1017.2 hPa 81% 6.0mm
01/10:00pm N 12-14 kts 21.7°c 1017.4 hPa 79% 6.0mm
01/09:30pm N 10-14 kts 21.5°c 1017.5 hPa 78% 6.0mm
01/09:00pm N 13-16 kts 21.8°c 1017.5 hPa 79% 6.0mm
01/08:30pm N 12-15 kts 21.7°c 1017.6 hPa 78% 6.0mm
01/08:00pm N 12-15 kts 21.7°c 1017.6 hPa 78% 6.0mm
01/07:30pm N 12-15 kts 21.5°c 1017.5 hPa 78% 6.0mm
01/07:00pm N 13-16 kts 21.6°c 1017.3 hPa 79% 6.0mm
01/06:30pm N 10-16 kts 21.6°c 1017.0 hPa 79% 6.0mm
01/06:00pm N 7-11 kts 21.3°c 1016.7 hPa 83% 6.0mm
01/05:30pm N 8-12 kts 21.0°c 1016.6 hPa 83% 6.0mm
01/05:00pm N 8-12 kts 21.2°c 1016.4 hPa 83% 6.0mm
01/04:30pm N 7-11 kts 21.6°c 1016.2 hPa 77% 6.0mm
01/04:00pm N 7-12 kts 22.2°c 1016.1 hPa 77% 6.0mm
01/03:30pm N 8-11 kts 22.3°c 1016.0 hPa 78% 6.0mm
01/03:00pm N 5-8 kts 22.9°c 1016.1 hPa 78% 6.0mm
01/02:30pm NE 5-6 kts 21.9°c 1016.2 hPa 83% 5.8mm
01/02:00pm NNE 5-8 kts 21.3°c 1016.5 hPa 83% 5.8mm
01/01:30pm NE 2-5 kts 21.6°c 1016.7 hPa 87% 5.8mm
01/01:00pm ENE 3-5 kts 20.6°c 1016.9 hPa 88% 5.8mm
01/12:30pm SW 5-10 kts 19.8°c 1017.4 hPa 90% 5.8mm
01/12:00pm NNW 1-4 kts 22.5°c 1017.6 hPa 75% 0.8mm
01/11:30am N 4-6 kts 23.1°c 1018.1 hPa 74% 0.8mm
01/11:00am WNW 4-6 kts 22.6°c 1018.4 hPa 77% 0.8mm
01/10:30am WSW 5-7 kts 22.0°c 1018.7 hPa 86% 0.8mm
01/10:00am E 4-12 kts 20.8°c 1019.1 hPa 85% 0.4mm
01/09:30am S 4-6 kts 21.8°c 1019.2 hPa 83% 0.0mm
01/09:00am NNW 1-5 kts 20.9°c 1019.4 hPa 88% 3.0mm
01/08:30am NNW 11-18 kts 20.3°c 1019.4 hPa 85% 2.4mm
01/08:00am WNW 7-11 kts 22.1°c 1019.0 hPa 76% 2.0mm
01/07:30am NNE 5-9 kts 22.6°c 1018.8 hPa 74% 2.0mm
01/07:00am NE 5-9 kts 21.4°c 1018.5 hPa 78% 2.0mm
01/06:30am NE 6-10 kts 21.0°c 1018.4 hPa 78% 2.0mm
01/06:00am NE 7-10 kts 21.0°c 1018.0 hPa 79% 2.0mm
01/05:30am NE 7-12 kts 21.1°c 1017.8 hPa 81% 2.0mm
01/05:00am ENE 5-8 kts 20.9°c 1017.6 hPa 82% 2.0mm
01/04:30am ENE 7-11 kts 20.5°c 1017.6 hPa 82% 2.0mm
01/04:00am ENE 10-14 kts 21.0°c 1017.8 hPa 84% 2.0mm
01/03:30am NE 6-11 kts 21.7°c 1017.7 hPa 79% 2.0mm
01/03:00am N 4-7 kts 21.6°c 1017.6 hPa 75% 2.0mm
01/02:30am N 5-7 kts 21.5°c 1017.8 hPa 74% 2.0mm
01/02:00am N 8-11 kts 21.6°c 1018.1 hPa 77% 2.0mm
01/01:30am N 7-11 kts 21.7°c 1018.3 hPa 79% 2.0mm
01/01:00am NE 4-7 kts 21.3°c 1018.5 hPa 73% 2.0mm
01/12:30am ENE 5-8 kts 21.3°c 1018.7 hPa 70% 2.0mm
01/12:00am ENE 6-10 kts 21.5°c 1018.8 hPa 69% 2.0mm